sat.trackr.live / text

‹ back to catalog

SJ-11-08

NORAD 40286 · 2014-066A

PAYLOAD ACTIVE UNKNOWN

§ Identity

Operator
Country
PRC
Launch date
2014-10-27
Launch site
JSC
Launch vehicle
Mass (kg)
RCS (m²)
2.16

External: N2YO · Heavens-Above · Gunter

§ Orbital elements

Epoch: 2026-09-20T04:20:24.171648Z

Period
98.21 min
Inclination
98.3662°
Eccentricity
0.0010909
Mean motion
14.66262189 rev/d
Perigee alt
665.3 km
Apogee alt
680.7 km
Semi-major
7,051.2 km
B*
7.2894e-5
RAAN
49.7420°
Arg perigee
297.3544°
Mean anomaly
62.6549°
Rev number
63,513

§ Raw data

SJ-11-081 40286U 14066A   26263.18083532  .00000351  00000+0  72894-4 0  99982 40286  98.3662  49.7420 0010909 297.3544  62.6549 14.66262189635130

JSON: /api/v1/satellites/40286 · /tle

For live sub-satellite position, see the globe view (requires WebGL).

§ Visibility from observer

Set your observer location to see the next 7 days of passes ≥ 10°. The values pass through the URL so the page stays shareable.

No JS? Fill the form by hand. The geolocation button needs JavaScript.